Flag for U.S.A. Weather past 2 weeks in Mason, Ohio, U.S.A.

Now
63 °F

Overcast.


Feels Like: 63 °F
Forecast: 44 / 69 °F
Wind: No wind

Location: Butler County Regional Airport

Current Time: Sep 17, 2014 at 1:48:26 PM

Latest Report: Sep 17, 2014 at 12:53 PM


Visibility: 10 mi

Pressure: 30.06 "Hg

Humidity: 60%

Dew point: 49 °F

Location of MasonLocation

Historic Weather in Mason — Graph

°F

Mason temperature yesterday

Maximum temperature yesterday: 62 °F (at 2:53 PM)
Minimum temperature yesterday: 56 °F (at 8:53 AM)
Average temperature yesterday: 59 °F

Past Weeks' High & Low Weather Summary

 TemperatureHumidityPressure
High101 °F (Sep 3, 1:53 PM)100% (Sep 2, 8:53 PM)30.34 "Hg (Sep 2, 8:53 PM)
Low43 °F (Sep 14, 6:53 AM)23% (Sep 3, 3:53 PM)29.75 "Hg (Sep 10, 7:53 PM)
Average66 °F79%30.10 "Hg
* Reported Sep 2 12:53 PM — Sep 17 12:53 PM, Mason, Weather by CustomWeather, © 2014

Note: Actual official high and low records may vary slightly from our data, if they occured in-between our weather recording intervals... More about our weather records

Advertising

Mason weather history for previous 24 hours

 ConditionsComfort  
Time TempWeatherWind HumidityBarometerVisibility
12:53 PM
Sep 17
63 °FOvercast.No wind60%30.06 "Hg10 mi
11:53 AM61 °FOvercast.No wind70%30.07 "Hg10 mi
10:53 AM59 °FOvercast.7 mph81%30.08 "Hg9 mi
9:53 AM56 °FOvercast.3 mph87%30.09 "Hg8 mi
8:53 AM53 °FFog.No wind93%30.09 "Hg6 mi
7:53 AM51 °FFog.No wind100%30.10 "Hg5 mi
6:53 AM50 °FFog.No wind96%30.09 "Hg5 mi
5:53 AM47 °FMostly cloudy.No wind97%30.09 "Hg7 mi
5:01 AM46 °FFog.No wind96%30.09 "Hg1 mi
3:53 AM46 °FFog.No wind96%30.10 "Hg5 mi
2:53 AM47 °FClear.No wind93%30.10 "Hg8 mi
1:53 AM49 °FClear.No wind97%30.10 "Hg7 mi
12:53 AM53 °FPassing clouds.No wind96%30.11 "Hg9 mi
11:53 PM
Sep 16
57 °FOvercast.No wind90%30.12 "Hg10 mi
10:53 PM58 °FOvercast.No wind87%30.11 "Hg10 mi
9:53 PM58 °FOvercast.3 mph87%30.12 "Hg10 mi
8:53 PM59 °FOvercast.No wind81%30.12 "Hg10 mi
7:53 PM58 °FOvercast.No wind87%30.11 "Hg10 mi
6:53 PM61 °FOvercast.5 mph75%30.12 "Hg10 mi
5:53 PM61 °FOvercast.5 mph75%30.13 "Hg10 mi
5:00 PM62 °FOvercast.3 mph70%30.14 "Hg10 mi
3:53 PM62 °FOvercast.No wind70%30.14 "Hg10 mi
2:53 PM62 °FOvercast.No wind65%30.15 "Hg10 mi
1:53 PM60 °FOvercast.6 mph75%30.17 "Hg10 mi
Weather by CustomWeather, © 2014

See weather overviewHow to use our weather pages